GW4591 Weather Reports


Display with metric or nautical units.
time (UTC)temp
F
wind
direction
speed
MPH
gust
MPH
rain 1hr
in
rain 24hr
in
rain mn
in
humidity
%
barometer
mb
20260507025046 38 173 2.0 5.0 0.00 0.60 0.02 85 1011.7
20260507024526 38 186 1.0 4.0 0.00 0.60 0.02 85 1011.6
20260507024009 38 192 1.0 5.0 0.00 0.60 0.02 86 1011.7
20260507023552 38 182 0.0 6.0 0.00 0.60 0.02 87 1011.6
20260507023029 38 178 3.0 6.0 0.00 0.60 0.02 88 1011.6
20260507022510 38 180 0.0 5.0 0.00 0.60 0.02 89 1011.6
20260507022053 38 205 1.0 4.0 0.00 0.60 0.02 90 1011.7
20260507021534 39 190 1.0 4.0 0.00 0.60 0.02 90 1011.7
20260507021012 39 175 1.0 4.0 0.00 0.60 0.02 90 1011.7
20260507020555 39 311 1.0 3.0 0.00 0.60 0.02 90 1011.7
20260507020050 39 313 0.0 3.0 0.00 0.60 0.02 90 1011.7
20260507015514 39 315 0.0 2.0 0.00 0.60 0.02 89 1011.7
20260507015059 39 315 0.0 2.0 0.00 0.60 0.02 89 1011.5
20260507014540 39 315 1.0 5.0 0.00 0.60 0.02 89 1011.5
20260507014019 39 315 1.0 5.0 0.00 0.60 0.02 88 1011.4
20260507013603 39 236 0.0 4.0 0.00 0.60 0.02 87 1011.3
20260507013051 39 177 0.0 5.0 0.00 0.60 0.02 87 1011.4
20260507012523 39 177 4.0 8.0 0.00 0.60 0.02 87 1011.4
20260507012002 39 182 4.0 7.0 0.00 0.60 0.02 87 1011.5
20260507011546 39 173 6.0 8.0 0.00 0.60 0.02 88 1011.5
20260507011025 39 148 2.0 8.0 0.00 0.60 0.02 87 1011.6
20260507010506 39 20 0.0 2.0 0.00 0.60 0.02 87 1011.6
20260507010053 39 22 0.0 5.0 0.00 0.60 0.02 87 1011.5
20260507005512 39 22 2.0 5.0 0.00 0.60 0.02 87 1011.4
20260507005054 39 23 1.0 5.0 0.00 0.60 0.02 87 1011.4
20260507004540 39 171 2.0 11.0 0.00 0.60 0.02 86 1011.4
20260507004014 39 180 3.0 9.0 0.00 0.60 0.02 86 1011.3
20260507003600 39 170 6.0 9.0 0.00 0.60 0.02 86 1011.3
20260507003044 40 188 5.0 11.0 0.00 0.60 0.02 86 1011.3
20260507002520 40 171 7.0 14.0 0.00 0.60 0.02 87 1011.3
20260507002103 40 159 7.0 11.0 0.00 0.60 0.02 87 1011.3
20260507001546 39 155 6.0 9.0 0.00 0.60 0.02 88 1011.5
20260507001021 39 181 5.0 8.0 0.00 0.60 0.02 88 1011.4
20260507000501 39 193 4.0 7.0 0.00 0.60 0.02 88 1011.5
20260507000045 39 186 4.0 7.0 0.00 0.60 0.02 88 1011.4
20260506235528 39 180 6.0 7.0 0.00 0.61 0.02 89 1011.4
20260506235005 39 186 0.0 2.0 0.01 0.61 0.02 88 1011.4
20260506234552 39 186 0.0 3.0 0.01 0.61 0.02 89 1011.4
20260506234029 39 186 1.0 3.0 0.01 0.61 0.02 88 1011.4
20260506233509 39 186 1.0 3.0 0.01 0.61 0.02 88 1011.4
20260506233108 40 180 0.0 6.0 0.01 0.61 0.02 88 1011.4
20260506232532 40 180 1.0 6.0 0.01 0.61 0.02 87 1011.4
20260506232012 40 236 3.0 9.0 0.01 0.61 0.02 87 1011.4
20260506231601 40 217 3.0 10.0 0.01 0.61 0.02 86 1011.4
20260506231037 40 159 5.0 10.0 0.01 0.61 0.02 86 1011.4
20260506230516 40 206 3.0 17.0 0.01 0.61 0.02 86 1011.4
20260506230100 40 167 8.0 19.0 0.01 0.61 0.02 85 1011.4
20260506225540 40 166 8.0 19.0 0.01 0.60 0.01 86 1011.4
20260506225020 41 141 2.0 18.0 0.01 0.60 0.01 87 1011.6
20260506224604 41 144 8.0 18.0 0.01 0.60 0.01 87 1011.5
20260506224045 41 171 10.0 16.0 0.02 0.60 0.01 87 1011.4
20260506223523 41 164 10.0 15.0 0.02 0.60 0.01 85 1011.5
20260506223002 41 159 11.0 18.0 0.02 0.60 0.01 85 1011.6
20260506222546 41 177 8.0 16.0 0.02 0.60 0.01 86 1011.5
20260506222028 40 161 10.0 14.0 0.02 0.60 0.01 85 1011.5
20260506221506 40 179 11.0 14.0 0.02 0.60 0.01 86 1011.4
20260506221051 40 150 9.0 13.0 0.02 0.60 0.01 86 1011.5
20260506220529 40 210 4.0 11.0 0.02 0.60 0.01 85 1011.6
20260506220009 40 184 6.0 14.0 0.01 0.59 0.00 85 1011.5
20260506215531 41 212 4.0 14.0 0.01 0.59 0.59 86 1011.4
20260506215010 41 176 10.0 16.0 0.01 0.59 0.59 87 1011.4
20260506214556 41 175 6.0 14.0 0.00 0.57 0.57 88 1011.6
20260506214035 41 173 8.0 14.0 0.01 0.57 0.57 89 1011.5
20260506213514 40 182 8.0 14.0 0.01 0.57 0.57 90 1011.6
20260506213120 40 134 8.0 14.0 0.01 0.57 0.57 90 1011.4
20260506212538 39 180 7.0 11.0 0.01 0.57 0.57 91 1011.4
20260506212018 39 173 4.0 9.0 0.01 0.57 0.57 91 1011.5
20260506211602 39 216 2.0 6.0 0.01 0.57 0.57 91 1011.6
20260506211042 39 182 2.0 8.0 0.01 0.57 0.57 92 1011.6
20260506210522 39 205 3.0 8.0 0.01 0.57 0.57 92 1011.8
20260506210003 39 189 1.0 4.0 0.01 0.57 0.57 92 1011.7
20260506205545 39 205 2.0 4.0 0.01 0.57 0.57 92 1011.7
20260506205026 39 243 2.0 7.0 0.01 0.57 0.57 92 1011.5
20260506204506 39 242 2.0 7.0 0.01 0.57 0.57 91 1011.6
20260506204049 39 238 2.0 9.0 0.00 0.56 0.56 91 1011.7
20260506203528 39 234 3.0 9.0 0.00 0.56 0.56 91 1011.7
20260506203008 40 240 3.0 8.0 0.00 0.56 0.56 90 1011.7
20260506202552 40 241 2.0 12.0 0.00 0.56 0.56 89 1011.6
20260506202031 40 241 7.0 12.0 0.00 0.56 0.56 86 1011.5
20260506201513 41 241 3.0 6.0 0.00 0.56 0.56 83 1011.4
20260506201054 41 247 2.0 5.0 0.00 0.56 0.56 83 1011.4